[[{"header":{"parameterUnit":"m.s-1","parameterCategory":1,"la1":30.2991,"la2":30.254,"lo1":-89.0895,"lo2":-89.0444,"dy":0.0017,"dx":0.0017,"nx":28,"ny":28,"refTime":"2024-06-04T03:00:00:Z","depth":0,"parameterNumber":2,"parameterNumberName":"U-component_of_WINDS"},"data":[0,0,0,0,0,0,0,0,0,0,0,0,0,0,0,0,0,0,0,0,0,0,0,0,0,0,0,0,0,0,0,0,0,0,0,0,0,0,0,0,0,0,0,0,0,0,0,0,0,0,0,0,0,0,0,0,0,0,-2.0587,-2.059,0,-2.0814,-2.0816,-2.0819,-2.0916,-2.0915,-2.0915,-2.0914,-2.1146,-2.1152,-2.1158,0,0,0,0,0,0,0,0,0,0,0,0,0,-2.0239,-2.0245,-2.0587,-2.059,-2.0593,-2.0813,-2.0816,-2.082,-2.0916,-2.0915,-2.0915,-2.0914,-2.1143,-2.1151,-2.1159,0,0,0,0,0,0,0,0,0,0,0,0,0,-2.042,-2.0247,-2.0587,-2.0667,-2.0677,-2.0813,-2.0817,-2.082,-2.0916,-2.0915,-2.0915,-2.0914,-2.1141,-2.115,-2.116,-2.1232,0,0,-2.119,-2.1194,0,0,0,0,0,0,0,0,-2.041,-2.0433,-2.0653,-2.0662,-2.0673,-2.0836,-2.0779,-2.0958,-2.0916,-2.0825,-2.0914,-2.0914,-2.1043,-2.1061,-2.1104,-2.1243,-2.1253,-2.1191,-2.1197,-2.1201,-2.1204,0,0,0,0,0,0,0,-2.0397,-2.0424,-2.0677,-2.0656,-2.0668,-2.0693,-2.0718,-2.0813,-2.0934,-2.0833,-2.084,-2.0866,-2.1048,-2.1095,-2.1111,-2.1256,-2.119,-2.1199,-2.1205,-2.1209,-2.1468,-2.1469,0,0,0,0,0,0,-2.0371,-2.0413,-2.067,-2.0684,-2.0537,-2.0699,-2.0727,-2.0784,-2.0934,-2.0956,-2.0866,-2.087,-2.1078,-2.1099,-2.1119,-2.1215,-2.1201,-2.121,-2.1216,-2.1467,-2.1468,-2.147,0,0,0,0,0,0,-2.0363,-2.0393,-2.066,-2.055,-2.0586,-2.0706,-2.0769,-2.0789,-2.0835,-2.0959,-2.0981,-2.0891,-2.1079,-2.1105,-2.1204,-2.1225,-2.1214,-2.1223,-2.1466,-2.1468,-2.1469,-2.1406,0,0,0,0,0,0,-2.0353,-2.039,-2.0418,-2.055,-2.0592,-2.0741,-2.077,-2.0794,-2.0852,-2.0859,-2.0988,-2.1009,-2.108,-2.1189,-2.1214,-2.1238,-2.1231,-2.1465,-2.1467,-2.1469,-2.1407,-2.1406,-2.1404,0,0,0,0,0,-2.034,-2.0391,-2.0419,-2.0449,-2.0629,-2.0742,-2.0766,-2.0847,-2.0853,-2.0883,-2.0963,-2.1005,-2.1218,-2.1198,-2.1227,-2.1254,-2.1464,-2.1466,-2.1468,-2.1408,-2.1406,-2.1404,0,0,0,0,0,0,-2.0257,-2.0409,-2.0442,-2.0537,-2.0626,-2.0758,-2.0798,-2.0842,-2.093,-2.0933,-2.1029,-2.1058,-2.1148,-2.1211,-2.1186,-2.1333,-2.1345,-2.1353,-2.1289,-2.1288,-2.1286,-2.127,-2.1239,0,0,0,0,0,-2.025,-2.0328,-2.0457,-2.0529,-2.0572,-2.0677,-2.0729,-2.0784,-2.088,-2.0917,-2.1004,-2.1096,-2.1184,-2.1239,-2.1327,-2.1417,-2.1447,-2.145,-2.1449,-2.1447,-2.1453,-2.1507,-2.151,-2.1477,-2.1477,-2.1477,0,0,-2.0236,-2.0329,-2.0372,-2.0514,-2.059,-2.0669,-2.0708,-2.079,-2.085,-2.093,-2.1029,-2.1096,-2.1204,-2.1299,-2.1346,-2.1355,-2.1469,-2.145,-2.1447,-2.1455,-2.151,-2.1513,-2.1515,-2.1479,-2.1478,-2.1478,0,0,-2.0251,-2.0328,-2.0397,-2.0472,-2.0586,-2.0656,-2.0673,-2.0799,-2.0847,-2.0948,-2.101,-2.1083,-2.1232,-2.1307,-2.1365,-2.1411,-2.1453,-2.1436,-2.1429,-2.148,-2.1483,-2.1486,-2.1503,-2.1508,-2.1442,-2.1442,-2.1442,0,-2.0219,-2.0341,-2.0427,-2.0507,-2.0568,-2.0645,-2.0716,-2.0784,-2.092,-2.0961,-2.097,-2.116,-2.1238,-2.1353,-2.1364,-2.1408,-2.143,-2.1422,-2.1476,-2.1479,-2.1483,-2.1501,-2.1507,-2.1439,-2.1439,-2.144,-2.144,0,-2.0297,-2.0381,-2.0423,-2.0553,-2.062,-2.0694,-2.0792,-2.0849,-2.0898,-2.0968,-2.1071,-2.1168,-2.1277,-2.1308,-2.1357,-2.1431,-2.1433,-2.1457,-2.147,-2.1482,-2.1501,-2.1508,-2.1435,-2.1436,-2.1437,-2.1438,0,0,-2.0265,-2.0443,-2.0457,-2.0518,-2.0651,-2.0718,-2.0796,-2.0904,-2.0951,-2.1043,-2.1112,-2.1238,-2.1262,-2.1327,-2.1385,-2.143,-2.1462,-2.145,-2.1454,-2.145,-2.1551,-2.1532,-2.1539,-2.1491,-2.1493,-2.1494,-2.1542,0,-2.0299,-2.0443,-2.0524,-2.0635,-2.0715,-2.0789,-2.0859,-2.0947,-2.1015,-2.1092,-2.1167,-2.1255,-2.1279,-2.1319,-2.1368,-2.1448,-2.1484,-2.1446,-2.1557,-2.156,-2.1528,-2.1548,-2.1528,-2.1569,-2.155,-2.1551,-2.1552,0,-2.0357,-2.0448,-2.0567,-2.0693,-2.0729,-2.0789,-2.0896,-2.0969,-2.1072,-2.1118,-2.1191,-2.125,-2.1337,-2.1343,-2.1465,-2.1437,-2.1488,-2.1535,-2.1538,-2.1552,-2.1557,-2.1563,-2.1584,-2.159,-2.1564,-2.1563,-2.1562,0,-2.0323,-2.0476,-2.0568,-2.0618,-2.0765,-2.0806,-2.087,-2.0972,-2.1032,-2.1125,-2.1165,-2.1266,-2.1322,-2.1399,-2.1484,-2.1481,-2.1598,-2.1611,-2.1639,-2.1637,-2.166,-2.1658,-2.169,-2.1691,-2.1691,-2.1691,-2.1691,0,-2.0352,-2.0423,-2.0555,-2.0611,-2.0693,-2.0785,-2.0863,-2.0933,-2.1023,-2.1095,-2.1166,-2.1232,-2.1339,-2.1419,-2.1485,-2.1577,-2.1601,-2.1641,-2.1658,-2.1635,-2.163,-2.167,-2.1669,-2.1693,-2.1693,-2.1692,-2.1692,0,-2.0328,-2.0419,-2.0524,-2.0656,-2.0691,-2.0745,-2.0858,-2.0917,-2.0988,-2.1078,-2.1105,-2.1217,-2.1314,-2.1406,-2.1536,-2.1581,-2.1673,-2.1695,-2.1638,-2.1648,-2.1671,-2.1668,-2.173,-2.1743,-2.1735,-2.1734,-2.1734,0,-2.0341,-2.0397,-2.0535,-2.0589,-2.0651,-2.0736,-2.0798,-2.0891,-2.0953,-2.1076,-2.1119,-2.1222,-2.1309,-2.1462,-2.1555,-2.1655,-2.168,-2.1695,-2.1695,-2.1671,-2.1682,-2.1677,-2.1684,-2.1693,-2.1693,-2.1692,-2.1692,0,-2.0355,-2.0398,-2.0485,-2.0588,-2.066,-2.0746,-2.0834,-2.0874,-2.0984,-2.105,-2.1151,-2.1219,-2.1352,-2.1454,-2.1565,-2.1631,-2.168,-2.1691,-2.1704,-2.1681,-2.1646,-2.1666,-2.1634,-2.169,-2.169,-2.169,-2.169,-2.169,-2.0351,-2.0405,-2.0511,-2.0606,-2.0682,-2.0763,-2.0825,-2.0905,-2.099,-2.1107,-2.1157,-2.1259,-2.1363,-2.1517,-2.1583,-2.1664,-2.1675,-2.1692,-2.1697,-2.17,-2.1695,-2.1633,-2.1685,-2.1685,-2.1685,-2.1685,-2.1685,0,-2.0369,-2.0442,-2.0528,-2.065,-2.0725,-2.0765,-2.0865,-2.0925,-2.1014,-2.1107,-2.1192,-2.1308,-2.1408,-2.1509,-2.1614,-2.166,-2.1686,-2.1685,-2.1683,-2.1697,-2.1679,-2.1659,-2.1663,-2.1663,-2.1663,-2.1663,-2.1663,-2.1663,-2.0388,-2.0482,-2.0537,-2.067,-2.0743,-2.0844,-2.0898,-2.0973,-2.1048,-2.1175,-2.1258,-2.1324,-2.1421,-2.1534,-2.1627,-2.1654,-2.169,-2.1683,-2.1716,-2.1697,-2.1698,-2.1699,-2.1681,-2.169,-2.169,-2.1728,-2.1729,-2.1729]},{"header":{"parameterUnit":"m.s-1","parameterCategory":1,"la1":30.2991,"la2":30.254,"lo1":-89.0895,"lo2":-89.0444,"dy":0.0017,"dx":0.0017,"nx":28,"ny":28,"refTime":"2024-06-04T03:00:00:Z","depth":0,"parameterNumber":3,"parameterNumberName":"V-component_of_WINDS"},"data":[0,0,0,0,0,0,0,0,0,0,0,0,0,0,0,0,0,0,0,0,0,0,0,0,0,0,0,0,0,0,0,0,0,0,0,0,0,0,0,0,0,0,0,0,0,0,0,0,0,0,0,0,0,0,0,0,0,0,5.9634,5.9633,0,5.9572,5.9571,5.957,5.9473,5.9471,5.9469,5.9467,5.9406,5.9406,5.9406,0,0,0,0,0,0,0,0,0,0,0,0,0,5.967,5.967,5.9634,5.9633,5.9632,5.9572,5.9571,5.957,5.9473,5.9471,5.9469,5.9467,5.9406,5.9406,5.9406,0,0,0,0,0,0,0,0,0,0,0,0,0,5.9636,5.967,5.9634,5.9577,5.9571,5.9572,5.9571,5.957,5.9473,5.9471,5.9468,5.9466,5.9406,5.9406,5.9406,5.9458,0,0,5.9406,5.9406,0,0,0,0,0,0,0,0,5.9638,5.9635,5.9586,5.9581,5.9574,5.9527,5.9561,5.9532,5.9474,5.951,5.9467,5.9464,5.9448,5.9445,5.9439,5.9455,5.9453,5.9406,5.9406,5.9406,5.9406,0,0,0,0,0,0,0,5.9641,5.9637,5.9609,5.9585,5.9578,5.9554,5.9547,5.9555,5.9495,5.9507,5.95,5.9494,5.9445,5.9439,5.9437,5.9452,5.9406,5.9406,5.9406,5.9406,5.9506,5.9509,0,0,0,0,0,0,5.9651,5.964,5.9611,5.9607,5.96,5.9556,5.9547,5.9545,5.9495,5.9484,5.9496,5.9489,5.944,5.9437,5.9434,5.949,5.9406,5.9406,5.9406,5.9504,5.9507,5.951,0,0,0,0,0,0,5.9652,5.965,5.9614,5.9621,5.9615,5.9558,5.9556,5.9545,5.9539,5.9486,5.9475,5.9501,5.9438,5.9434,5.9452,5.9487,5.9406,5.9406,5.95,5.9505,5.9508,5.9605,0,0,0,0,0,0,5.9654,5.9651,5.967,5.9623,5.9615,5.9633,5.9559,5.9546,5.9539,5.953,5.9488,5.9479,5.9436,5.9453,5.9452,5.9485,5.9406,5.9497,5.9502,5.9507,5.9598,5.9612,5.9623,0,0,0,0,0,5.9656,5.9701,5.9671,5.9669,5.9638,5.9635,5.9631,5.958,5.9543,5.9561,5.9527,5.948,5.9484,5.9456,5.9454,5.9488,5.9495,5.9501,5.9507,5.9593,5.9609,5.9623,0,0,0,0,0,0,5.9754,5.9693,5.966,5.9691,5.9669,5.9619,5.9641,5.9599,5.9588,5.958,5.9518,5.9509,5.9535,5.9513,5.9483,5.9535,5.9482,5.9488,5.9548,5.9563,5.9575,5.9579,5.9406,0,0,0,0,0,5.978,5.9782,5.9729,5.9762,5.9752,5.9699,5.9696,5.9658,5.9633,5.9623,5.959,5.9568,5.9564,5.9562,5.9556,5.9595,5.9584,5.9618,5.963,5.9641,5.9646,5.9663,5.9676,5.953,5.953,5.9529,0,0,5.9832,5.9799,5.9805,5.978,5.9759,5.9763,5.9691,5.9699,5.9701,5.9625,5.9639,5.9614,5.9585,5.9614,5.9625,5.9597,5.9684,5.9648,5.9657,5.9656,5.967,5.9684,5.9697,5.9534,5.9533,5.9532,0,0,5.9929,5.9905,5.9928,5.9908,5.9875,5.9839,5.9845,5.9801,5.9781,5.9795,5.9737,5.9739,5.9734,5.9714,5.9704,5.9793,5.9749,5.9793,5.9857,5.9874,5.9886,5.9896,5.9925,5.9937,5.9799,5.9799,5.9799,0,5.9998,6.0001,5.9946,5.9956,5.9946,5.9877,5.9899,5.9883,5.9851,5.9846,5.9815,5.9805,5.9781,5.9803,5.9824,5.9819,5.9823,5.9796,5.9889,5.9898,5.9906,5.9934,5.9945,5.9805,5.9804,5.9803,5.9803,0,6.0086,6.0089,6.0112,6.0081,6.0075,6.0092,6.0039,6.0039,6.0002,5.997,5.9983,5.9952,5.9937,5.994,5.9905,5.9956,5.9939,5.99,5.9845,5.9927,5.9951,5.9961,5.9812,5.981,5.9809,5.9807,0,0,6.0242,6.018,6.0189,6.0173,6.0133,6.0134,6.0148,6.0132,6.0132,6.0113,6.0121,6.0118,6.008,6.0069,6.0031,6.0047,6.0116,6.0005,6.0003,6.0024,6.0169,6.0197,6.021,6.0088,6.0089,6.0091,6.017,0,6.0329,6.0347,6.0298,6.0329,6.033,6.0264,6.0275,6.0251,6.0222,6.0218,6.0186,6.0183,6.0135,6.0127,6.014,6.0105,6.0144,6.0099,6.0094,6.0094,6.0101,6.0223,6.0254,6.033,6.018,6.0181,6.0182,0,6.0432,6.0416,6.0447,6.0403,6.0401,6.0413,6.0393,6.0391,6.0363,6.034,6.0327,6.0282,6.0292,6.0241,6.0252,6.0223,6.0218,6.0201,6.0203,6.0198,6.0142,6.022,6.0353,6.0364,6.0198,6.0196,6.0195,0,6.054,6.0527,6.0543,6.0532,6.0481,6.049,6.047,6.0439,6.0432,6.0415,6.041,6.0396,6.0387,6.0377,6.033,6.0297,6.0346,6.0292,6.0326,6.0328,6.0338,6.0338,6.047,6.0339,6.0339,6.0339,6.0339,0,6.0641,6.0661,6.059,6.06,6.0621,6.0564,6.0586,6.0559,6.0532,6.0535,6.0478,6.0482,6.042,6.0418,6.0381,6.0395,6.0393,6.0373,6.0363,6.0377,6.0379,6.0371,6.0364,6.0342,6.0341,6.0341,6.034,0,6.0764,6.0717,6.0729,6.0681,6.0669,6.0686,6.0644,6.0651,6.0617,6.0622,6.0619,6.0567,6.056,6.0513,6.0496,6.0471,6.0498,6.0479,6.0507,6.05,6.0536,6.0533,6.0667,6.068,6.0544,6.0545,6.0546,0,6.083,6.0844,6.0796,6.0793,6.0775,6.0773,6.0765,6.071,6.0704,6.0672,6.0682,6.0671,6.0659,6.0652,6.0612,6.0598,6.0577,6.0625,6.0574,6.0587,6.0574,6.0573,6.0573,6.0635,6.0637,6.0638,6.0639,0,6.0951,6.0927,6.0918,6.09,6.0893,6.0876,6.0857,6.0858,6.0797,6.0794,6.0786,6.0776,6.0758,6.0747,6.0727,6.0706,6.0662,6.0656,6.0662,6.0676,6.0691,6.0681,6.0534,6.0652,6.0651,6.065,6.0649,6.0649,6.1046,6.1055,6.1022,6.1013,6.0992,6.0975,6.0978,6.0945,6.0937,6.0917,6.0886,6.0882,6.0852,6.0819,6.0802,6.0798,6.0772,6.0783,6.0785,6.0788,6.0795,6.0693,6.0794,6.0794,6.0793,6.0793,6.0793,0,6.1162,6.1138,6.113,6.1104,6.1097,6.1057,6.1032,6.1029,6.1026,6.1002,6.0991,6.0981,6.097,6.0929,6.0914,6.0918,6.0898,6.0916,6.0914,6.0909,6.082,6.0814,6.0932,6.0932,6.0932,6.0932,6.0932,6.0932,6.1222,6.1233,6.1206,6.1206,6.1182,6.1177,6.1166,6.115,6.1129,6.1121,6.1111,6.1085,6.1053,6.1035,6.1022,6.101,6.1006,6.1031,6.1012,6.0929,6.0916,6.0903,6.0897,6.1031,6.1031,6.1102,6.1102,6.1103]}]]